Weather History for Pauls Valley, OK

Change the Weather History Date:

Monday, October 8, 2012

  Actual Average (KADH) Record (KADH)
Temperature  
Mean Temperature 48 °F -  
Max Temperature 62 °F 75 °F 95 °F (1963)
Min Temperature 33 °F 51 °F 30 °F (1952)
Degree Days  
Heating Degree Days 18    
Moisture  
Dew Point 34 °F    
Average Humidity 64    
Maximum Humidity 100    
Minimum Humidity 34    
Precipitation  
Precipitation 0.00 in - - ()
Sea Level Pressure  
Sea Level Pressure 30.16 in    
Wind  
Wind Speed 3 mph (South)    
Max Wind Speed 13 mph    
Max Gust Speed 18 mph    
Visibility 10 miles    
Events      
Averages and records for this station are not official NWS values.
T = Trace of Precipitation, MM = Missing Value Source: NWS Daily Summary

Daily Weather History Graph

Daily Weather History Graph

Search for Another Location

Airport:

Trip Planner

Search our weather history database for the weather conditions in past years. The results will help you decide how hot, cold, wet, or windy it might be!

Date:

Astronomy

Oct. 08, 2012 Rise Set
Actual Time 7:29 AM CDT 7:02 PM CDT
Civil Twilight 7:04 AM CDT 7:27 PM CDT
Nautical Twilight 6:34 AM CDT 7:57 PM CDT
Astronomical Twilight 6:05 AM CDT 8:26 PM CDT
Moon 12:26 AM CDT (10/8) 2:38 PM CDT (10/8)
Length of Visible Light 12h 23m
Length of Day
11h 33m
Last Quarter, 46% of the Moon is Illuminated
Oct 8
Last Quarter
Oct 15
New
Oct 21
First Quarter
Oct 29
Full
Nov 6
Last Quarter

Hourly Weather History & Observations

Time (CDT) Temp. Windchill Dew Point Humidity Pressure Visibility Wind Dir Wind Speed Gust Speed Precip Events Conditions
12:15 AM 41.0 °F - 35.6 °F 81% 30.25 in 10.0 mi Calm Calm - N/A   Unknown
12:35 AM 41.0 °F - 33.8 °F 76% 30.24 in 10.0 mi Calm Calm - N/A   Unknown
12:55 AM 39.2 °F - 35.6 °F 87% 30.24 in 10.0 mi Calm Calm - N/A   Unknown
1:15 AM 41.0 °F 39.0 °F 33.8 °F 76% 30.23 in 10.0 mi NNE 3.5 mph - N/A   Unknown
1:35 AM 37.4 °F - 33.8 °F 87% 30.24 in 10.0 mi Calm Calm - N/A   Unknown
1:55 AM 37.4 °F - 33.8 °F 87% 30.24 in 10.0 mi Calm Calm - N/A   Unknown
2:15 AM 37.4 °F - 33.8 °F 87% 30.24 in 10.0 mi Calm Calm - N/A   Unknown
2:35 AM 37.4 °F - 33.8 °F 87% 30.24 in 10.0 mi Calm Calm - N/A   Unknown
2:55 AM 37.4 °F 34.9 °F 33.8 °F 87% 30.24 in 10.0 mi NW 3.5 mph - N/A   Unknown
3:15 AM 35.6 °F 31.7 °F 33.8 °F 93% 30.23 in 10.0 mi NW 4.6 mph - N/A   Unknown
3:35 AM 33.8 °F - 33.8 °F 100% 30.23 in 10.0 mi Calm Calm - N/A   Unknown
3:55 AM 35.6 °F - 33.8 °F 93% 30.22 in 10.0 mi Calm Calm - N/A   Unknown
4:15 AM 35.6 °F - 33.8 °F 93% 30.21 in 10.0 mi Calm Calm - N/A   Unknown
4:35 AM 33.8 °F 30.8 °F 33.8 °F 100% 30.21 in 10.0 mi East 3.5 mph - N/A   Unknown
4:55 AM 33.8 °F - 33.8 °F 100% 30.21 in 10.0 mi Calm Calm - N/A   Unknown
5:35 AM 33.8 °F - 33.8 °F 100% 30.22 in 10.0 mi Calm Calm - N/A   Unknown
5:55 AM 33.8 °F - 32.0 °F 93% 30.22 in 10.0 mi Calm Calm - N/A   Unknown
6:15 AM 33.8 °F - 32.0 °F 93% 30.22 in 10.0 mi Calm Calm - N/A   Unknown
6:35 AM 33.8 °F - 32.0 °F 93% 30.23 in 10.0 mi Calm Calm - N/A   Unknown
6:55 AM 33.8 °F - 32.0 °F 93% 30.23 in 10.0 mi Calm Calm - N/A   Unknown
7:15 AM 33.8 °F - 32.0 °F 93% 30.22 in 10.0 mi Calm Calm - N/A   Unknown
7:35 AM 33.8 °F - 33.8 °F 100% 30.23 in 10.0 mi Calm Calm - N/A   Unknown
7:55 AM 33.8 °F - 32.0 °F 93% 30.23 in 10.0 mi Calm Calm - N/A   Unknown
8:15 AM 33.8 °F - 33.8 °F 100% 30.23 in 10.0 mi Calm Calm - N/A   Unknown
8:35 AM 35.6 °F - 33.8 °F 93% 30.24 in 10.0 mi Calm Calm - N/A   Unknown
8:55 AM 37.4 °F 34.9 °F 35.6 °F 93% 30.24 in 10.0 mi South 3.5 mph - N/A   Unknown
9:15 AM 41.0 °F 39.0 °F 37.4 °F 87% 30.25 in 10.0 mi South 3.5 mph - N/A   Unknown
9:35 AM 42.8 °F 39.3 °F 37.4 °F 81% 30.25 in 10.0 mi South 5.8 mph - N/A   Unknown
9:55 AM 44.6 °F 40.7 °F 37.4 °F 76% 30.25 in 10.0 mi South 6.9 mph - N/A   Unknown
10:15 AM 50.0 °F - 37.4 °F 62% 30.25 in 10.0 mi South 8.1 mph - N/A   Unknown
10:35 AM 51.8 °F - 35.6 °F 54% 30.25 in 10.0 mi SSW 8.1 mph - N/A   Unknown
10:55 AM 51.8 °F - 35.6 °F 54% 30.24 in 10.0 mi South 10.4 mph - N/A   Unknown
11:15 AM 53.6 °F - 33.8 °F 47% 30.23 in 10.0 mi South 8.1 mph - N/A   Unknown
11:35 AM 53.6 °F - 33.8 °F 47% 30.22 in 10.0 mi South 8.1 mph - N/A   Unknown
11:55 AM 55.4 °F - 32.0 °F 41% 30.21 in 10.0 mi SSW 8.1 mph - N/A   Unknown
12:15 PM 55.4 °F - 33.8 °F 44% 30.20 in 10.0 mi SSE 3.5 mph - N/A   Unknown
12:35 PM 57.2 °F - 35.6 °F 44% 30.19 in 10.0 mi South 10.4 mph - N/A   Unknown
12:55 PM 59.0 °F - 33.8 °F 39% 30.19 in 10.0 mi South 6.9 mph - N/A   Unknown
1:15 PM 59.0 °F - 33.8 °F 39% 30.17 in 10.0 mi South 4.6 mph 9.2 mph N/A   Unknown
1:35 PM 59.0 °F - 33.8 °F 39% 30.17 in 10.0 mi SSW 6.9 mph - N/A   Unknown
1:55 PM 60.8 °F - 35.6 °F 39% 30.16 in 10.0 mi SW 10.4 mph 17.3 mph N/A   Unknown
2:15 PM 60.8 °F - 35.6 °F 39% 30.14 in 10.0 mi South 8.1 mph 18.4 mph N/A   Unknown
2:35 PM 60.8 °F - 33.8 °F 36% 30.13 in 10.0 mi South 12.7 mph - N/A   Unknown
2:55 PM 60.8 °F - 33.8 °F 36% 30.12 in 10.0 mi SSW 6.9 mph 17.3 mph N/A   Unknown
3:15 PM 62.6 °F - 33.8 °F 34% 30.11 in 10.0 mi South 9.2 mph - N/A   Unknown
3:35 PM 62.6 °F - 33.8 °F 34% 30.10 in 10.0 mi South 11.5 mph - N/A   Unknown
3:55 PM 62.6 °F - 33.8 °F 34% 30.09 in 10.0 mi SSE 6.9 mph - N/A   Unknown
4:15 PM 62.6 °F - 33.8 °F 34% 30.08 in 10.0 mi South 11.5 mph - N/A   Unknown
4:35 PM 62.6 °F - 33.8 °F 34% 30.07 in 10.0 mi South 12.7 mph - N/A   Unknown
4:55 PM 62.6 °F - 33.8 °F 34% 30.06 in 10.0 mi SSW 12.7 mph 18.4 mph N/A   Unknown
5:15 PM 62.6 °F - 33.8 °F 34% 30.06 in 10.0 mi SSW 10.4 mph - N/A   Unknown
5:35 PM 62.6 °F - 33.8 °F 34% 30.06 in 10.0 mi SSE 9.2 mph - N/A   Unknown
5:55 PM 62.6 °F - 33.8 °F 34% 30.04 in 10.0 mi SSE 9.2 mph - N/A   Unknown
6:15 PM 60.8 °F - 33.8 °F 36% 30.05 in 10.0 mi South 10.4 mph - N/A   Unknown
6:35 PM 59.0 °F - 33.8 °F 39% 30.05 in 10.0 mi SSE 6.9 mph - N/A   Unknown
6:55 PM 59.0 °F - 33.8 °F 39% 30.04 in 10.0 mi SSE 6.9 mph - N/A   Unknown
7:15 PM 57.2 °F - 33.8 °F 41% 30.04 in 10.0 mi SSE 5.8 mph - N/A   Unknown
7:35 PM 55.4 °F - 33.8 °F 44% 30.04 in 10.0 mi South 6.9 mph - N/A   Unknown
7:55 PM 53.6 °F - 33.8 °F 47% 30.04 in 10.0 mi SSE 4.6 mph - N/A   Unknown
8:15 PM 53.6 °F - 33.8 °F 47% 30.05 in 10.0 mi SSE 3.5 mph - N/A   Unknown
8:35 PM 53.6 °F - 33.8 °F 47% 30.05 in 10.0 mi SSE 3.5 mph - N/A   Unknown
8:55 PM 51.8 °F - 35.6 °F 54% 30.05 in 10.0 mi SSE 5.8 mph - N/A   Unknown
9:15 PM 51.8 °F - 35.6 °F 54% 30.05 in 10.0 mi SSE 4.6 mph - N/A   Unknown
9:35 PM 51.8 °F - 35.6 °F 54% 30.06 in 10.0 mi SSE 3.5 mph - N/A   Unknown
9:55 PM 51.8 °F - 35.6 °F 54% 30.07 in 10.0 mi SSE 3.5 mph - N/A   Unknown
10:15 PM 50.0 °F - 35.6 °F 58% 30.08 in 10.0 mi SSE 3.5 mph - N/A   Unknown
10:55 PM 50.0 °F - 35.6 °F 58% 30.06 in 10.0 mi SSE 4.6 mph - N/A   Unknown
11:15 PM 48.2 °F - 37.4 °F 66% 30.06 in 10.0 mi SSE 5.8 mph - N/A   Unknown
11:35 PM 46.4 °F 43.5 °F 37.4 °F 71% 30.05 in 10.0 mi SSE 5.8 mph - N/A   Unknown
11:55 PM 46.4 °F 43.5 °F 37.4 °F 71% 30.05 in 10.0 mi SSE 5.8 mph - N/A   Unknown